Flag for Canada Weather past 2 weeks in Wood Buffalo, Alberta, Canada

Now
33 °F

Chilly.


Feels Like: 28 °F
Forecast: 34 / 64 °F
Wind: 6 mph from East

Location: Fort McMurray CS

Current Time: May 29, 2015 at 6:36:29 AM

Latest Report: May 29, 2015 at 6:00 AM


Visibility: N/A

Pressure: 30.43 "Hg

Humidity: 66%

Dew point: 23 °F

Location of Wood BuffaloLocation

Historic Weather in Wood Buffalo — Graph

°F

Wood Buffalo temperature yesterday

Maximum temperature yesterday: 53 °F (at 4:00 PM)
Minimum temperature yesterday: 35 °F (at 6:00 AM)
Average temperature yesterday: 44 °F

Past Weeks' High & Low Weather Summary

 TemperatureHumidityPressure
High82 °F (May 25, 1:00 PM)87% (May 26, 4:00 AM)30.54 "Hg (May 26, 4:00 AM)
Low26 °F (May 17, 3:00 AM)11% (May 19, 2:00 PM)29.66 "Hg (May 25, 2:00 PM)
Average57 °F41%30.08 "Hg
* Reported May 14 5:00 AM — May 29 5:00 AM, Wood Buffalo, Weather by CustomWeather, © 2015

Note: Actual official high and low records may vary slightly from our data, if they occured in-between our weather recording intervals... More about our weather records

Advertising

Wood Buffalo weather history for previous 24 hours

 ConditionsComfort  
Time TempWeatherWind HumidityBarometerVisibility
5:00 AM
Fri, May 29
30 °FChilly.6 mph72%30.44 "HgN/A
4:00 AM32 °FChilly.5 mph71%30.43 "HgN/A
3:00 AM32 °FChilly.3 mph66%30.43 "HgN/A
2:00 AM34 °FChilly.5 mph65%30.42 "HgN/A
1:00 AM34 °FChilly.5 mph65%30.42 "HgN/A
12:00 AM40 °FQuite cool.7 mph46%30.41 "HgN/A
11:00 PM
Thu, May 28
42 °FQuite cool.6 mph45%30.40 "HgN/A
10:00 PM45 °FCool.3 mph39%30.39 "HgN/A
9:00 PM49 °FCool.6 mph29%30.37 "HgN/A
8:00 PM49 °FCool.9 mph28%30.37 "HgN/A
7:00 PM52 °FCool.10 mph25%30.37 "HgN/A
6:00 PM53 °FCool.9 mph27%30.38 "HgN/A
5:00 PM53 °FCool.9 mph29%30.38 "HgN/A
4:00 PM53 °FCool.9 mph30%30.38 "HgN/A
3:00 PM51 °FCool.5 mph33%30.39 "HgN/A
2:00 PM49 °FCool.12 mph35%30.40 "HgN/A
1:00 PM48 °FCool.13 mph37%30.40 "HgN/A
12:00 PM45 °FCool.12 mph42%30.40 "HgN/A
11:00 AM45 °FQuite cool.10 mph45%30.40 "HgN/A
10:00 AM43 °FQuite cool.9 mph51%30.39 "HgN/A
9:00 AM40 °FQuite cool.12 mph56%30.39 "HgN/A
8:00 AM39 °FChilly.8 mph68%30.37 "HgN/A
7:00 AM36 °FChilly.3 mph80%30.37 "HgN/A
6:00 AM35 °FChilly.7 mph84%30.35 "HgN/A
Weather by CustomWeather, © 2015

See weather overviewHow to use our weather pages